This is the latest recevied weather packets stored in our database for station/object K7FLA. If no packets are shown the sender has not sent any weather packets the latest 10 day(s).
| Time | Temp. | Humidity | Pressure | Rain* | Wind** | Luminosity | Snow |
|---|---|---|---|---|---|---|---|
| 1777411586 | 25.56° C | 30% | 1096.2 hPa | 0 mm | - | 729 W/m² | - |
| 1777411282 | 25.56° C | 31% | 1096.1 hPa | 0 mm | - | 736 W/m² | - |
| 1777410980 | 25° C | 29% | 1096.3 hPa | 0 mm | - | 757 W/m² | - |
| 1777410680 | 25° C | 28% | 1096.3 hPa | 0 mm | - | 726 W/m² | - |
| 1777410375 | 25.56° C | 25% | 1096.2 hPa | 0 mm | - | 721 W/m² | - |
| 1777410074 | 25.56° C | 26% | 1096.3 hPa | 0 mm | - | 740 W/m² | - |
| 1777409769 | 25.56° C | 28% | 1096.3 hPa | 0 mm | - | 599 W/m² | - |
| 1777409465 | 25.56° C | 27% | 1096.2 hPa | 0 mm | - | 775 W/m² | - |
| 1777409161 | 25° C | 26% | 1096.2 hPa | 0 mm | - | 807 W/m² | - |
| 1777408857 | 25.56° C | 25% | 1096 hPa | 0 mm | - | 825 W/m² | - |
| 1777408553 | 25.56° C | 27% | 1096 hPa | 0 mm | - | 723 W/m² | - |
| 1777408253 | 25.56° C | 27% | 1096 hPa | 0 mm | - | 820 W/m² | - |
| 1777407949 | 25.56° C | 28% | 1096 hPa | 0 mm | - | 824 W/m² | - |
| 1777407646 | 25.56° C | 25% | 1096.2 hPa | 0 mm | - | 829 W/m² | - |
| 1777407346 | 25.56° C | 27% | 1096.2 hPa | 0 mm | - | 794 W/m² | - |
| 1777407041 | 25° C | 23% | 1096.4 hPa | 0 mm | - | 833 W/m² | - |
| 1777406737 | 24.44° C | 26% | 1096.4 hPa | 0 mm | - | 841 W/m² | - |
| 1777406432 | 24.44° C | 20% | 1096.5 hPa | 0 mm | - | 844 W/m² | - |
| 1777406131 | 23.89° C | 22% | 1096.5 hPa | 0 mm | - | 849 W/m² | - |
| 1777405827 | 23.33° C | 19% | 1096.6 hPa | 0 mm | - | 852 W/m² | - |
| 1777405524 | 23.33° C | 19% | 1096.5 hPa | 0 mm | - | 855 W/m² | - |
| 1777405222 | 23.33° C | 23% | 1096.7 hPa | 0 mm | - | 856 W/m² | - |
| 1777404919 | 22.78° C | 22% | 1096.7 hPa | 0 mm | - | 857 W/m² | - |
| 1777404616 | 22.78° C | 22% | 1096.6 hPa | 0 mm | - | 857 W/m² | - |
| 1777404312 | 22.78° C | 22% | 1096.5 hPa | 0 mm | - | 788 W/m² | - |
* Rain latest hour (hover to see other rain measurements)
** Current wind speed in m/s (hover to see current wind gust speed)